Location: Bremen
(53.0793°N, 8.8017°E)
Time: 01:43:50
(UTC+01:00)

deb Explorer IX - Pass Details

Date: 10 December 2021
Orbit: 544 x 1082 km, 38.8° (Epoch: 16 January)

Event Time Altitude Azimuth Distance (km) Brightness Sun altitude
Rises 10:18:26 0° 240° (WSW) 3,238 ? 9.7°
Reaches altitude 10° 10:22:01 10° 218° (SW) 2,187 ? 9.9°
Maximum altitude 10:24:48 15° 185° (S) 1,787 ? 10.1°
Drops below altitude 10° 10:27:24 10° 151° (SSE) 2,014 ? 10.3°
Sets 10:30:29 0° 127° (SE) 2,834 ? 10.5°
